Location: Norway
(63.2336°N, 9.9976°E)
Time: 02:14:33
(UTC+02:00)

Envisat - Visible Passes

Search period start: 22 September 2019 00:00
Search period end: 02 October 2019 00:00
Orbit: 764 x 766 km, 98.1° (Epoch: 21 September)

Date Brightness Start Highest point End Pass type
(mag) Time Alt. Az. Time Alt. Az. Time Alt. Az.
22 Sep 5.2 20:15:56 10° SSW 20:20:25 30° W 20:24:55 10° NNW visible
23 Sep 6.1 21:21:08 10° WSW 21:23:38 14° WNW 21:26:08 10° NW visible
24 Sep 5.7 20:42:20 10° SW 20:46:14 22° W 20:50:12 10° NW visible
25 Sep 4.9 20:04:23 10° SSW 20:09:02 35° W 20:13:43 10° NNW visible
26 Sep 6.7 06:23:48 10° ENE 06:25:09 11° ENE 06:26:30 10° E visible
26 Sep 6.0 21:09:08 10° WSW 21:12:10 16° W 21:15:13 10° NW visible
27 Sep 5.5 20:30:39 10° SW 20:34:51 25° W 20:39:04 10° NNW visible
28 Sep 4.6 19:52:53 10° SSW 19:57:41 40° W 20:02:31 10° NNW visible
28 Sep 6.4 21:36:53 10° W 21:38:11 11° WNW 21:39:29 10° WNW visible
29 Sep 5.9 20:57:16 10° SW 21:00:44 18° W 21:04:12 10° NW visible
30 Sep 5.2 20:19:02 10° SSW 20:23:27 29° W 20:27:53 10° NNW visible
01 Oct 6.4 06:37:10 10° NE 06:39:43 14° ENE 06:42:14 10° ESE visible
01 Oct 4.3 19:41:27 10° S 19:46:20 47° W 19:51:17 10° NNW visible
01 Oct 6.2 21:24:27 10° WSW 21:26:42 13° WNW 21:28:56 10° NW visible
